Location: Coopersdale
(40.3556°N, 78.9372°W)
Time: 15:23:07
(UTC+00:00)

S-56A Canister/Altair - All Passes

Search period start: 23 January 2021 00:00
Search period end: 02 February 2021 00:00
Orbit: 633 x 2499 km, 38.9° (Epoch: 23 January)

Date Brightness Start Highest point End Pass type
(mag) Time Alt. Az. Time Alt. Az. Time Alt. Az.
23 Jan - 07:27:06 10° SW 07:31:16 34° SSE 07:35:22 10° E night (unlit)
23 Jan - 09:30:07 10° W 09:34:32 75° S 09:39:49 10° E visible
23 Jan - 11:33:20 10° W 11:38:09 59° SSW 11:44:50 10° ESE visible
23 Jan - 13:37:01 10° W 13:42:00 26° SSW 13:48:43 10° SSE daylight
24 Jan - 06:54:37 10° SW 06:58:48 30° SSE 07:02:42 10° E night (unlit)
24 Jan - 08:57:37 10° WSW 09:02:02 72° S 09:06:58 10° E visible
24 Jan - 11:00:56 10° W 11:05:34 62° SSW 11:11:45 10° ESE visible
24 Jan - 13:04:31 10° W 13:09:17 28° SSW 13:15:44 10° SSE daylight
25 Jan - 06:22:06 10° SSW 06:26:19 27° SSE 06:30:04 10° E night (unlit)
25 Jan - 08:25:05 10° WSW 08:29:32 68° S 08:34:13 10° E visible
25 Jan - 10:28:31 10° W 10:33:01 65° S 10:38:44 10° ESE visible
25 Jan - 12:32:03 10° W 12:36:38 30° SSW 12:42:44 10° SSE daylight
26 Jan - 05:49:32 10° SSW 05:53:48 24° SSE 05:57:29 10° E night (unlit)
26 Jan - 07:52:28 10° WSW 07:57:03 64° S 08:01:32 10° E visible
26 Jan - 09:56:05 10° W 10:00:29 68° S 10:05:48 10° ESE visible
26 Jan - 11:59:35 10° W 12:04:00 32° SSW 12:09:48 10° SE visible
27 Jan - 05:16:56 10° SSW 05:21:15 22° SSE 05:24:53 10° ESE night (unlit)
27 Jan - 07:19:49 10° WSW 07:24:34 59° SSE 07:28:56 10° E night (unlit)
27 Jan - 09:23:35 10° W 09:27:59 71° S 09:32:58 10° ESE visible
27 Jan - 11:27:08 10° W 11:31:25 34° SSW 11:36:55 10° SE visible
27 Jan - 13:34:13 10° SW 13:35:04 10° SSW 13:35:59 10° SSW daylight
28 Jan - 04:44:18 10° SSW 04:48:41 20° SSE 04:52:18 10° ESE night (unlit)
28 Jan - 06:47:04 10° WSW 06:52:04 55° SSE 06:56:24 10° E night (unlit)
28 Jan - 08:51:01 10° W 08:55:29 73° S 09:00:12 10° E visible
28 Jan - 10:54:39 10° W 10:58:52 36° SSW 11:04:05 10° SE visible
28 Jan - 13:00:41 10° SW 13:02:24 11° SSW 13:04:17 10° SSW daylight
29 Jan - 04:11:39 10° SSW 04:16:04 19° SSE 04:19:43 10° ESE night (unlit)
29 Jan - 06:14:16 10° WSW 06:19:34 51° SSE 06:23:55 10° E night (unlit)
29 Jan - 08:18:24 10° W 08:23:00 75° S 08:27:32 10° E visible
29 Jan - 10:22:10 10° W 10:26:21 40° SSW 10:31:18 10° SE visible
29 Jan - 12:27:36 10° SW 12:29:46 12° SSW 12:32:09 10° S daylight
30 Jan - 03:38:58 10° S 03:43:26 18° SSE 03:47:05 10° ESE night (unlit)
30 Jan - 05:41:23 10° SW 05:47:02 47° SSE 05:51:27 10° E night (unlit)
30 Jan - 07:45:42 10° W 07:50:31 76° S 07:54:56 10° E night (unlit)
30 Jan - 09:49:38 10° W 09:53:51 44° SSW 09:58:35 10° SE visible
30 Jan - 11:54:42 10° WSW 11:57:10 14° SSW 11:59:55 10° S visible
31 Jan - 03:06:18 10° S 03:10:45 16° SSE 03:14:24 10° ESE night (unlit)
31 Jan - 05:08:26 10° SW 05:14:28 44° SSE 05:19:02 10° E night (unlit)
31 Jan - 07:12:54 10° W 07:18:00 75° S 07:22:24 10° E night (unlit)
31 Jan - 09:17:04 10° W 09:21:22 48° SSW 09:25:56 10° ESE visible
31 Jan - 11:21:53 10° WSW 11:24:35 15° SSW 11:27:36 10° S visible
01 Feb - 02:33:40 10° S 02:38:01 15° SSE 02:41:40 10° ESE visible
01 Feb - 04:35:24 10° SW 04:41:53 42° SSE 04:46:37 10° E night (unlit)
01 Feb - 06:40:01 10° W 06:45:29 75° S 06:49:55 10° E night (unlit)
01 Feb - 08:44:27 10° W 08:48:54 53° SSW 08:53:20 10° ESE visible
01 Feb - 10:49:06 10° WSW 10:52:02 17° SSW 10:55:17 10° S visible
